Time,TemperatureF,DewpointF,PressureIn,WindDirection,WindDirectionDegrees,WindSpeedMPH,WindSpeedGustMPH,Humidity,HourlyPrecipIn,Conditions,Clouds,dailyrainin,SoftwareType,DateUTC
2013-01-12 00:03:00,76.5,51.0,26.99,ESE,123,8.1,8.3,32,0.00,,---,0.00,VWS V14.01,2013-01-12 06:03:00,
2013-01-12 00:08:00,76.5,51.0,26.99,East,90,8.7,13.2,32,0.00,,---,0.00,VWS V14.01,2013-01-12 06:08:00,
2013-01-12 00:13:00,76.5,51.0,26.99,SE,130,10.1,10.1,32,0.00,,---,0.00,VWS V14.01,2013-01-12 06:13:00,
2013-01-12 00:18:00,76.5,51.0,26.99,SE,129,11.0,11.0,32,0.00,,---,0.00,VWS V14.01,2013-01-12 06:18:00,
2013-01-12 00:23:00,76.5,51.0,26.99,SE,138,3.1,13.2,32,0.00,,---,0.00,VWS V14.01,2013-01-12 06:23:00,
2013-01-12 00:28:00,76.5,51.0,26.99,ENE,59,7.6,22.8,32,0.00,,---,0.00,VWS V14.01,2013-01-12 06:28:00,
2013-01-12 00:33:00,76.5,51.0,26.99,East,91,5.8,17.0,32,0.00,,---,0.00,VWS V14.01,2013-01-12 06:33:00,
2013-01-12 00:38:00,76.5,51.0,26.99,ENE,75,11.0,11.0,32,0.00,,---,0.00,VWS V14.01,2013-01-12 06:38:00,
2013-01-12 00:43:00,76.5,51.0,26.99,East,94,8.3,15.4,32,0.00,,---,0.00,VWS V14.01,2013-01-12 06:43:00,
2013-01-12 00:48:00,76.5,51.0,26.99,East,82,11.0,11.4,32,0.00,,---,0.00,VWS V14.01,2013-01-12 06:48:00,
2013-01-12 00:53:00,76.5,51.0,26.99,East,94,10.1,13.6,32,0.00,,---,0.00,VWS V14.01,2013-01-12 06:53:00,
2013-01-12 00:58:00,76.5,51.0,26.99,SE,132,5.4,5.8,32,0.00,,---,0.00,VWS V14.01,2013-01-12 06:58:00,
2013-01-12 01:03:00,76.5,51.0,26.99,ESE,115,6.3,15.9,32,0.00,,---,0.00,VWS V14.01,2013-01-12 07:03:00,
2013-01-12 01:08:00,76.5,51.0,26.99,SSE,148,6.3,6.3,32,0.00,,---,0.00,VWS V14.01,2013-01-12 07:08:00,
2013-01-12 01:13:00,76.5,51.0,26.99,SE,143,10.1,10.1,32,0.00,,---,0.00,VWS V14.01,2013-01-12 07:13:00,
2013-01-12 01:18:00,76.5,51.0,26.99,East,94,7.6,10.1,32,0.00,,---,0.00,VWS V14.01,2013-01-12 07:18:00,
2013-01-12 01:23:00,76.5,51.0,26.99,NE,54,7.6,8.7,32,0.00,,---,0.00,VWS V14.01,2013-01-12 07:23:00,
2013-01-12 01:28:00,76.5,51.0,26.99,East,97,4.0,7.6,32,0.00,,---,0.00,VWS V14.01,2013-01-12 07:28:00,
2013-01-12 01:33:00,76.5,51.0,26.99,East,84,5.8,10.1,32,0.00,,---,0.00,VWS V14.01,2013-01-12 07:33:00,
2013-01-12 01:38:00,76.5,51.0,26.99,SE,133,2.7,8.1,32,0.00,,---,0.00,VWS V14.01,2013-01-12 07:38:00,
2013-01-12 01:43:00,76.5,51.0,26.99,ENE,66,8.3,9.6,32,0.00,,---,0.00,VWS V14.01,2013-01-12 07:43:00,
2013-01-12 01:48:00,76.5,51.0,26.99,SSE,158,6.3,6.3,32,0.00,,---,0.00,VWS V14.01,2013-01-12 07:48:00,
2013-01-12 01:53:00,76.5,51.0,26.99,SE,143,5.8,10.1,32,0.00,,---,0.00,VWS V14.01,2013-01-12 07:53:00,
2013-01-12 01:58:00,76.5,51.0,26.99,East,79,10.5,12.3,32,0.00,,---,0.00,VWS V14.01,2013-01-12 07:58:00,
2013-01-12 02:03:00,76.5,51.0,26.99,SE,124,8.3,8.3,32,0.00,,---,0.00,VWS V14.01,2013-01-12 08:03:00,
2013-01-12 02:08:00,76.5,51.0,26.99,SSE,164,6.3,6.3,32,0.00,,---,0.00,VWS V14.01,2013-01-12 08:08:00,
2013-01-12 02:13:00,76.5,51.0,26.99,SSE,147,7.6,7.6,32,0.00,,---,0.00,VWS V14.01,2013-01-12 08:13:00,
2013-01-12 02:18:00,76.5,51.0,26.99,ESE,123,7.6,7.6,32,0.00,,---,0.00,VWS V14.01,2013-01-12 08:18:00,
2013-01-12 02:23:00,76.5,51.0,26.99,East,94,8.1,11.0,32,0.00,,---,0.00,VWS V14.01,2013-01-12 08:23:00,
2013-01-12 02:28:00,76.5,51.0,26.96,ESE,117,8.3,15.0,32,0.00,,---,0.00,VWS V14.01,2013-01-12 08:28:00,
2013-01-12 02:33:00,76.5,51.0,26.96,SE,125,5.4,8.7,32,0.00,,---,0.00,VWS V14.01,2013-01-12 08:33:00,
2013-01-12 02:38:00,76.5,51.0,26.99,SSE,149,8.1,8.7,32,0.00,,---,0.00,VWS V14.01,2013-01-12 08:38:00,
2013-01-12 02:43:00,76.5,51.0,26.99,ESE,114,10.5,13.2,32,0.00,,---,0.00,VWS V14.01,2013-01-12 08:43:00,
2013-01-12 02:48:00,76.5,51.0,26.99,SE,139,11.0,11.0,32,0.00,,---,0.00,VWS V14.01,2013-01-12 08:48:00,
2013-01-12 02:53:00,76.5,51.0,26.99,East,83,4.0,8.3,32,0.00,,---,0.00,VWS V14.01,2013-01-12 08:53:00,
2013-01-12 02:58:00,76.5,51.0,26.99,East,96,10.1,10.1,32,0.00,,---,0.00,VWS V14.01,2013-01-12 08:58:00,
2013-01-12 03:03:00,76.5,51.0,26.99,SE,141,6.3,7.6,32,0.00,,---,0.00,VWS V14.01,2013-01-12 09:03:00,
2013-01-12 03:08:00,76.5,51.0,26.99,NE,49,7.6,7.6,32,0.00,,---,0.00,VWS V14.01,2013-01-12 09:08:00,
2013-01-12 03:13:00,76.5,51.0,26.99,SE,131,7.6,7.6,32,0.00,,---,0.00,VWS V14.01,2013-01-12 09:13:00,
2013-01-12 03:18:00,76.5,51.0,26.99,South,174,5.4,5.8,32,0.00,,---,0.00,VWS V14.01,2013-01-12 09:18:00,
2013-01-12 03:23:00,76.5,51.0,26.99,SE,137,8.3,8.7,32,0.00,,---,0.00,VWS V14.01,2013-01-12 09:23:00,
2013-01-12 03:28:00,76.5,51.0,26.99,East,82,6.3,8.7,32,0.00,,---,0.00,VWS V14.01,2013-01-12 09:28:00,
2013-01-12 03:33:00,76.5,51.0,26.99,SSE,152,4.0,6.3,32,0.00,,---,0.00,VWS V14.01,2013-01-12 09:33:00,
2013-01-12 03:38:00,76.5,51.0,26.99,ENE,62,6.3,7.6,32,0.00,,---,0.00,VWS V14.01,2013-01-12 09:38:00,
2013-01-12 03:43:00,76.5,51.0,26.99,SE,145,3.6,4.9,32,0.00,,---,0.00,VWS V14.01,2013-01-12 09:43:00,
2013-01-12 03:48:00,76.5,51.0,26.99,ESE,123,7.6,8.7,32,0.00,,---,0.00,VWS V14.01,2013-01-12 09:48:00,
2013-01-12 03:53:00,76.5,51.0,26.99,SSW,207,4.0,6.3,32,0.00,,---,0.00,VWS V14.01,2013-01-12 09:53:00,
2013-01-12 03:58:00,76.5,51.0,26.99,ESE,102,7.6,7.6,32,0.00,,---,0.00,VWS V14.01,2013-01-12 09:58:00,
2013-01-12 04:03:00,76.5,51.0,26.99,SSE,160,8.7,11.0,32,0.00,,---,0.00,VWS V14.01,2013-01-12 10:03:00,
2013-01-12 04:08:00,76.5,51.0,26.99,ESE,105,4.0,12.3,32,0.00,,---,0.00,VWS V14.01,2013-01-12 10:08:00,
2013-01-12 04:13:00,76.5,51.0,26.99,SE,145,5.8,8.3,32,0.00,,---,0.00,VWS V14.01,2013-01-12 10:13:00,
2013-01-12 04:18:00,76.5,51.0,26.99,SSE,166,7.2,7.2,32,0.00,,---,0.00,VWS V14.01,2013-01-12 10:18:00,
2013-01-12 04:23:00,76.5,51.0,26.96,East,84,11.0,11.0,32,0.00,,---,0.00,VWS V14.01,2013-01-12 10:23:00,
2013-01-12 04:28:00,76.5,51.0,26.96,ESE,117,6.3,9.2,32,0.00,,---,0.00,VWS V14.01,2013-01-12 10:28:00,
2013-01-12 04:33:00,76.5,51.0,26.96,SSW,201,4.9,17.0,32,0.00,,---,0.00,VWS V14.01,2013-01-12 10:33:00,
2013-01-12 04:38:00,76.5,51.0,26.96,ESE,118,10.5,10.5,32,0.00,,---,0.00,VWS V14.01,2013-01-12 10:38:00,
2013-01-12 04:43:00,76.5,51.0,26.96,East,99,3.1,10.5,32,0.00,,---,0.00,VWS V14.01,2013-01-12 10:43:00,
2013-01-12 04:48:00,76.5,51.0,26.96,SE,136,7.6,14.5,32,0.00,,---,0.00,VWS V14.01,2013-01-12 10:48:00,
2013-01-12 04:53:00,76.5,51.0,26.96,SSE,149,8.3,8.3,32,0.00,,---,0.00,VWS V14.01,2013-01-12 10:53:00,
2013-01-12 04:58:00,76.5,51.0,26.96,ESE,106,5.4,5.4,32,0.00,,---,0.00,VWS V14.01,2013-01-12 10:58:00,
2013-01-12 05:03:00,76.5,51.0,26.96,SSE,164,4.5,10.5,32,0.00,,---,0.00,VWS V14.01,2013-01-12 11:03:00,
2013-01-12 05:08:00,76.5,51.0,26.96,ESE,120,5.8,10.1,32,0.00,,---,0.00,VWS V14.01,2013-01-12 11:08:00,
2013-01-12 05:13:00,76.5,51.0,26.96,SE,139,9.2,9.2,32,0.00,,---,0.00,VWS V14.01,2013-01-12 11:13:00,
2013-01-12 05:18:00,76.5,51.0,26.96,SSE,160,5.4,11.0,32,0.00,,---,0.00,VWS V14.01,2013-01-12 11:18:00,
2013-01-12 05:23:00,76.5,51.0,26.96,SE,129,8.1,8.1,32,0.00,,---,0.00,VWS V14.01,2013-01-12 11:23:00,
2013-01-12 05:28:00,76.5,51.0,26.96,SSE,163,3.6,8.3,32,0.00,,---,0.00,VWS V14.01,2013-01-12 11:28:00,
2013-01-12 05:33:00,76.5,51.0,26.96,SE,140,5.8,8.3,32,0.00,,---,0.00,VWS V14.01,2013-01-12 11:33:00,
2013-01-12 05:38:00,76.5,51.0,26.96,SE,146,2.7,7.6,32,0.00,,---,0.00,VWS V14.01,2013-01-12 11:38:00,
2013-01-12 05:43:00,76.5,51.0,26.96,East,81,6.7,10.1,32,0.00,,---,0.00,VWS V14.01,2013-01-12 11:43:00,
2013-01-12 05:48:00,76.5,51.0,26.96,SE,142,11.9,13.2,32,0.00,,---,0.00,VWS V14.01,2013-01-12 11:48:00,
2013-01-12 05:53:00,76.5,51.0,26.96,South,185,13.2,13.2,32,0.00,,---,0.00,VWS V14.01,2013-01-12 11:53:00,
2013-01-12 05:58:00,76.5,51.0,26.99,SE,143,4.0,4.9,32,0.00,,---,0.00,VWS V14.01,2013-01-12 11:58:00,
2013-01-12 06:03:00,76.5,51.0,26.99,South,173,15.9,15.9,32,0.00,,---,0.00,VWS V14.01,2013-01-12 12:03:00,
2013-01-12 06:08:00,76.5,51.0,26.99,SSE,157,3.6,8.7,32,0.00,,---,0.00,VWS V14.01,2013-01-12 12:08:00,
2013-01-12 06:13:00,76.5,51.0,26.99,ESE,104,8.3,8.3,32,0.00,,---,0.00,VWS V14.01,2013-01-12 12:13:00,
2013-01-12 06:18:00,76.5,51.0,26.99,ESE,106,10.1,10.1,32,0.00,,---,0.00,VWS V14.01,2013-01-12 12:18:00,
2013-01-12 06:23:00,76.5,51.0,26.99,South,187,6.3,11.0,32,0.00,,---,0.00,VWS V14.01,2013-01-12 12:23:00,
2013-01-12 06:28:00,76.5,51.0,26.99,SE,138,17.0,17.0,32,0.00,,---,0.00,VWS V14.01,2013-01-12 12:28:00,
2013-01-12 06:33:00,76.5,51.0,26.99,South,186,7.6,7.6,32,0.00,,---,0.00,VWS V14.01,2013-01-12 12:33:00,
2013-01-12 06:38:00,76.5,51.0,26.99,SE,136,11.0,11.0,32,0.00,,---,0.00,VWS V14.01,2013-01-12 12:38:00,
2013-01-12 06:43:00,76.5,51.0,26.99,SE,132,6.7,11.0,32,0.00,,---,0.00,VWS V14.01,2013-01-12 12:43:00,
2013-01-12 06:48:00,76.5,51.0,26.99,East,94,8.1,12.8,32,0.00,,---,0.00,VWS V14.01,2013-01-12 12:48:00,
2013-01-12 06:53:00,76.5,51.0,26.99,SE,139,7.6,7.6,32,0.00,,---,0.00,VWS V14.01,2013-01-12 12:53:00,
2013-01-12 06:58:00,76.5,51.0,26.99,SSE,161,6.3,8.1,32,0.00,,---,0.00,VWS V14.01,2013-01-12 12:58:00,
2013-01-12 07:03:00,76.5,51.0,26.99,SE,136,6.3,6.3,32,0.00,,---,0.00,VWS V14.01,2013-01-12 13:03:00,
2013-01-12 07:08:00,76.5,51.0,26.99,SSE,152,8.1,8.1,32,0.00,,---,0.00,VWS V14.01,2013-01-12 13:08:00,
2013-01-12 07:13:00,76.5,51.0,26.99,SE,132,8.7,14.5,32,0.00,,---,0.00,VWS V14.01,2013-01-12 13:13:00,
2013-01-12 07:18:00,76.5,51.0,26.99,SE,131,5.4,5.4,32,0.00,,---,0.00,VWS V14.01,2013-01-12 13:18:00,
2013-01-12 07:23:00,76.5,51.0,26.99,NE,43,8.3,8.3,32,0.00,,---,0.00,VWS V14.01,2013-01-12 13:23:00,
2013-01-12 07:28:00,76.5,51.0,27.02,SE,127,2.7,3.1,32,0.00,,---,0.00,VWS V14.01,2013-01-12 13:28:00,
2013-01-12 07:33:00,76.5,51.0,27.02,SSW,192,5.8,8.3,32,0.00,,---,0.00,VWS V14.01,2013-01-12 13:33:00,
2013-01-12 07:38:00,76.5,51.0,27.02,SSE,159,5.8,5.8,32,0.00,,---,0.00,VWS V14.01,2013-01-12 13:38:00,
2013-01-12 07:43:00,76.5,51.0,27.02,SSE,165,3.1,4.9,32,0.00,,---,0.00,VWS V14.01,2013-01-12 13:43:00,
2013-01-12 07:48:00,76.5,51.0,27.02,ENE,77,3.1,3.6,32,0.00,,---,0.00,VWS V14.01,2013-01-12 13:48:00,
2013-01-12 07:53:00,76.5,51.0,27.02,ESE,107,3.1,3.1,32,0.00,,---,0.00,VWS V14.01,2013-01-12 13:53:00,
2013-01-12 07:58:00,76.5,51.0,27.02,ESE,123,2.7,5.8,32,0.00,,---,0.00,VWS V14.01,2013-01-12 13:58:00,
2013-01-12 08:03:00,76.5,51.0,27.02,ESE,121,5.8,5.8,32,0.00,,---,0.00,VWS V14.01,2013-01-12 14:03:00,
2013-01-12 08:08:00,76.5,51.0,27.02,SE,133,2.7,5.4,32,0.00,,---,0.00,VWS V14.01,2013-01-12 14:08:00,
2013-01-12 08:13:00,76.5,51.0,27.02,WSW,247,5.8,8.3,32,0.00,,---,0.00,VWS V14.01,2013-01-12 14:13:00,
2013-01-12 08:18:00,76.5,51.0,27.02,SSE,155,9.2,9.2,32,0.00,,---,0.00,VWS V14.01,2013-01-12 14:18:00,
2013-01-12 08:23:00,76.5,51.0,27.02,SSW,195,5.4,5.4,32,0.00,,---,0.00,VWS V14.01,2013-01-12 14:23:00,
2013-01-12 08:28:00,76.5,51.0,27.02,WNW,287,4.0,4.0,32,0.00,,---,0.00,VWS V14.01,2013-01-12 14:28:00,
2013-01-12 08:33:00,76.5,51.0,27.02,SSE,155,5.8,10.1,32,0.00,,---,0.00,VWS V14.01,2013-01-12 14:33:00,
2013-01-12 08:38:00,76.5,51.0,27.02,SE,130,8.3,8.3,32,0.00,,---,0.00,VWS V14.01,2013-01-12 14:38:00,
2013-01-12 08:43:00,76.5,51.0,27.02,East,94,4.0,4.0,32,0.00,,---,0.00,VWS V14.01,2013-01-12 14:43:00,
2013-01-12 08:48:00,76.5,51.0,27.02,SSE,162,7.6,7.6,32,0.00,,---,0.00,VWS V14.01,2013-01-12 14:48:00,
2013-01-12 08:53:00,76.5,51.0,27.02,East,100,8.1,8.1,32,0.00,,---,0.00,VWS V14.01,2013-01-12 14:53:00,
2013-01-12 08:58:00,76.5,51.0,27.02,ESE,122,7.6,7.6,32,0.00,,---,0.00,VWS V14.01,2013-01-12 14:58:00,
2013-01-12 09:03:00,76.5,51.0,27.02,SE,124,6.3,13.6,32,0.00,,---,0.00,VWS V14.01,2013-01-12 15:03:00,
2013-01-12 09:08:00,76.5,51.0,27.02,SE,140,4.5,6.3,32,0.00,,---,0.00,VWS V14.01,2013-01-12 15:08:00,
2013-01-12 09:13:00,76.5,51.0,27.02,ENE,65,3.6,3.6,32,0.00,,---,0.00,VWS V14.01,2013-01-12 15:13:00,
2013-01-12 09:18:00,76.5,51.0,27.02,ESE,110,3.1,5.8,32,0.00,,---,0.00,VWS V14.01,2013-01-12 15:18:00,
2013-01-12 09:23:00,76.5,51.0,27.02,ESE,118,3.1,6.3,32,0.00,,---,0.00,VWS V14.01,2013-01-12 15:23:00,
2013-01-12 09:28:00,76.5,51.0,27.02,East,85,8.7,9.6,32,0.00,,---,0.00,VWS V14.01,2013-01-12 15:28:00,
2013-01-12 09:33:00,76.5,51.0,27.02,ESE,115,3.6,13.2,32,0.00,,---,0.00,VWS V14.01,2013-01-12 15:33:00,
2013-01-12 09:38:00,76.5,51.0,27.02,SSE,160,12.8,12.8,32,0.00,,---,0.00,VWS V14.01,2013-01-12 15:38:00,
2013-01-12 09:43:00,76.5,51.0,27.02,ESE,122,15.4,15.4,32,0.00,,---,0.00,VWS V14.01,2013-01-12 15:43:00,
2013-01-12 09:48:00,76.5,51.0,27.02,SE,144,7.2,7.6,32,0.00,,---,0.00,VWS V14.01,2013-01-12 15:48:00,
2013-01-12 09:53:00,76.5,51.0,27.02,ESE,108,5.8,7.6,32,0.00,,---,0.00,VWS V14.01,2013-01-12 15:53:00,
2013-01-12 09:58:00,76.5,51.0,27.02,SSE,153,11.0,11.0,32,0.00,,---,0.00,VWS V14.01,2013-01-12 15:58:00,
2013-01-12 10:03:00,76.5,51.0,27.02,ESE,102,8.7,8.7,32,0.00,,---,0.00,VWS V14.01,2013-01-12 16:03:00,
2013-01-12 10:08:00,76.5,51.0,27.02,SE,137,6.3,6.7,32,0.00,,---,0.00,VWS V14.01,2013-01-12 16:08:00,
2013-01-12 10:13:00,76.5,51.0,27.02,North,8,3.1,11.0,32,0.00,,---,0.00,VWS V14.01,2013-01-12 16:13:00,
2013-01-12 10:18:00,76.5,51.0,27.02,ESE,121,4.5,4.5,32,0.00,,---,0.00,VWS V14.01,2013-01-12 16:18:00,
2013-01-12 10:23:00,76.5,51.0,27.02,SE,136,2.7,2.7,32,0.00,,---,0.00,VWS V14.01,2013-01-12 16:23:00,
2013-01-12 10:28:00,76.5,51.0,27.02,SE,136,4.0,10.1,32,0.00,,---,0.00,VWS V14.01,2013-01-12 16:28:00,
2013-01-12 10:33:00,76.5,51.0,27.02,East,82,12.3,12.3,32,0.00,,---,0.00,VWS V14.01,2013-01-12 16:33:00,
2013-01-12 10:38:00,76.5,51.0,27.02,SE,144,6.3,8.7,32,0.00,,---,0.00,VWS V14.01,2013-01-12 16:38:00,
2013-01-12 10:43:00,76.5,51.0,27.02,SE,146,9.6,11.0,32,0.00,,---,0.00,VWS V14.01,2013-01-12 16:43:00,
2013-01-12 10:48:00,76.5,51.0,27.02,South,190,6.3,8.1,32,0.00,,---,0.00,VWS V14.01,2013-01-12 16:48:00,
2013-01-12 10:53:00,76.5,51.0,27.02,East,85,5.4,10.5,32,0.00,,---,0.00,VWS V14.01,2013-01-12 16:53:00,
2013-01-12 10:58:00,76.5,51.0,27.02,SE,127,6.3,11.0,32,0.00,,---,0.00,VWS V14.01,2013-01-12 16:58:00,
2013-01-12 11:03:00,76.5,51.0,27.02,SE,131,8.1,8.1,32,0.00,,---,0.00,VWS V14.01,2013-01-12 17:03:00,
2013-01-12 11:08:00,76.5,51.0,26.99,SSE,148,9.6,9.6,32,0.00,,---,0.00,VWS V14.01,2013-01-12 17:08:00,
2013-01-12 11:13:00,76.5,51.0,26.99,East,85,9.6,10.1,32,0.00,,---,0.00,VWS V14.01,2013-01-12 17:13:00,
2013-01-12 11:18:00,76.5,51.0,26.99,East,80,8.7,8.7,32,0.00,,---,0.00,VWS V14.01,2013-01-12 17:18:00,
2013-01-12 11:23:00,76.5,51.0,26.99,ESE,114,8.1,8.1,32,0.00,,---,0.00,VWS V14.01,2013-01-12 17:23:00,
2013-01-12 11:28:00,76.5,51.0,26.99,SE,146,5.8,10.5,32,0.00,,---,0.00,VWS V14.01,2013-01-12 17:28:00,
2013-01-12 11:33:00,76.5,51.0,26.99,SE,130,4.0,5.4,32,0.00,,---,0.00,VWS V14.01,2013-01-12 17:33:00,
2013-01-12 11:38:00,76.5,51.0,26.99,SE,140,5.4,7.2,32,0.00,,---,0.00,VWS V14.01,2013-01-12 17:38:00,
2013-01-12 11:43:00,76.5,51.0,27.02,ESE,102,11.4,11.4,32,0.00,,---,0.00,VWS V14.01,2013-01-12 17:43:00,
2013-01-12 11:48:00,76.5,51.0,27.02,East,98,3.1,4.9,32,0.00,,---,0.00,VWS V14.01,2013-01-12 17:48:00,
2013-01-12 11:53:00,76.5,51.0,27.02,SE,145,6.3,6.3,32,0.00,,---,0.00,VWS V14.01,2013-01-12 17:53:00,
2013-01-12 11:58:00,76.5,51.0,26.99,ESE,118,3.1,11.9,32,0.00,,---,0.00,VWS V14.01,2013-01-12 17:58:00,
2013-01-12 12:03:00,76.5,51.0,26.99,East,93,15.4,15.4,32,0.00,,---,0.00,VWS V14.01,2013-01-12 18:03:00,
2013-01-12 12:08:00,76.5,51.0,26.99,ENE,73,8.3,8.3,32,0.00,,---,0.00,VWS V14.01,2013-01-12 18:08:00,
2013-01-12 12:13:00,76.5,51.0,26.99,East,96,5.8,5.8,32,0.00,,---,0.00,VWS V14.01,2013-01-12 18:13:00,
2013-01-12 12:18:00,76.5,51.0,26.99,ENE,61,4.0,4.0,32,0.00,,---,0.00,VWS V14.01,2013-01-12 18:18:00,
2013-01-12 12:23:00,76.5,51.0,26.99,SE,132,3.6,4.9,32,0.00,,---,0.00,VWS V14.01,2013-01-12 18:23:00,
2013-01-12 12:28:00,76.5,51.0,26.99,East,94,5.8,8.3,32,0.00,,---,0.00,VWS V14.01,2013-01-12 18:28:00,
2013-01-12 12:33:00,76.5,51.0,26.99,ESE,113,12.8,12.8,32,0.00,,---,0.00,VWS V14.01,2013-01-12 18:33:00,
2013-01-12 12:38:00,76.5,51.0,26.99,SSE,148,4.9,4.9,32,0.00,,---,0.00,VWS V14.01,2013-01-12 18:38:00,
2013-01-12 12:43:00,76.5,51.0,26.99,South,185,4.9,4.9,32,0.00,,---,0.00,VWS V14.01,2013-01-12 18:43:00,
2013-01-12 12:48:00,76.5,51.0,26.99,SE,136,3.6,6.3,32,0.00,,---,0.00,VWS V14.01,2013-01-12 18:48:00,
2013-01-12 12:53:00,76.5,51.0,26.99,SE,146,3.6,7.6,32,0.00,,---,0.00,VWS V14.01,2013-01-12 18:53:00,
2013-01-12 12:58:00,76.5,51.0,26.99,East,92,11.0,11.0,32,0.00,,---,0.00,VWS V14.01,2013-01-12 18:58:00,
2013-01-12 13:03:00,76.5,51.0,26.99,ESE,118,5.8,5.8,32,0.00,,---,0.00,VWS V14.01,2013-01-12 19:03:00,
2013-01-12 13:08:00,76.5,51.0,26.99,SE,127,5.4,5.4,32,0.00,,---,0.00,VWS V14.01,2013-01-12 19:08:00,
2013-01-12 13:13:00,76.5,51.0,26.99,SE,141,7.6,7.6,32,0.00,,---,0.00,VWS V14.01,2013-01-12 19:13:00,
2013-01-12 13:18:00,76.5,51.0,26.99,SE,132,2.7,2.7,32,0.00,,---,0.00,VWS V14.01,2013-01-12 19:18:00,
2013-01-12 13:23:00,76.5,51.0,26.99,East,99,6.7,6.7,32,0.00,,---,0.00,VWS V14.01,2013-01-12 19:23:00,
2013-01-12 13:28:00,76.5,51.0,26.99,ESE,120,7.6,7.6,32,0.00,,---,0.00,VWS V14.01,2013-01-12 19:28:00,
2013-01-12 13:33:00,76.5,51.0,26.99,SE,138,4.5,4.5,32,0.00,,---,0.00,VWS V14.01,2013-01-12 19:33:00,
2013-01-12 13:38:00,76.5,51.0,26.99,ESE,119,8.3,8.3,32,0.00,,---,0.00,VWS V14.01,2013-01-12 19:38:00,
2013-01-12 13:43:00,76.5,51.0,26.99,East,96,6.3,6.3,32,0.00,,---,0.00,VWS V14.01,2013-01-12 19:43:00,
2013-01-12 13:48:00,76.5,51.0,26.99,SE,126,3.1,7.6,32,0.00,,---,0.00,VWS V14.01,2013-01-12 19:48:00,
2013-01-12 13:53:00,76.5,51.0,26.99,SE,145,3.1,3.6,32,0.00,,---,0.00,VWS V14.01,2013-01-12 19:53:00,
2013-01-12 13:58:00,76.5,51.0,26.99,SE,137,3.6,8.1,32,0.00,,---,0.00,VWS V14.01,2013-01-12 19:58:00,
2013-01-12 14:03:00,76.5,51.0,26.99,East,82,5.4,5.4,32,0.00,,---,0.00,VWS V14.01,2013-01-12 20:03:00,
2013-01-12 14:08:00,76.5,51.0,26.99,SSW,203,5.8,7.6,32,0.00,,---,0.00,VWS V14.01,2013-01-12 20:08:00,
2013-01-12 14:13:00,76.5,51.0,26.99,ENE,66,3.6,5.4,32,0.00,,---,0.00,VWS V14.01,2013-01-12 20:13:00,
2013-01-12 14:18:00,76.5,51.0,26.99,SSE,151,3.6,5.4,32,0.00,,---,0.00,VWS V14.01,2013-01-12 20:18:00,
2013-01-12 14:23:00,76.5,51.0,26.99,ESE,117,3.6,8.7,32,0.00,,---,0.00,VWS V14.01,2013-01-12 20:23:00,
2013-01-12 14:28:00,76.5,51.0,26.99,South,176,6.3,6.3,32,0.00,,---,0.00,VWS V14.01,2013-01-12 20:28:00,
2013-01-12 14:33:00,76.5,51.0,26.99,SE,141,4.0,5.8,32,0.00,,---,0.00,VWS V14.01,2013-01-12 20:33:00,
2013-01-12 14:37:00,76.5,51.0,26.99,East,101,5.4,5.8,32,0.00,,---,0.00,VWS V14.01,2013-01-12 20:37:00,
2013-01-12 14:42:00,76.5,51.0,26.99,SE,134,4.0,4.0,32,0.00,,---,0.00,VWS V14.01,2013-01-12 20:42:00,
2013-01-12 14:47:00,76.5,51.0,26.99,SSE,154,5.4,5.4,32,0.00,,---,0.00,VWS V14.01,2013-01-12 20:47:00,
2013-01-12 14:52:00,76.5,51.0,26.99,SSE,166,8.1,8.1,32,0.00,,---,0.00,VWS V14.01,2013-01-12 20:52:00,
2013-01-12 14:57:00,76.5,51.0,26.99,SE,142,5.8,5.8,32,0.00,,---,0.00,VWS V14.01,2013-01-12 20:57:00,
2013-01-12 15:02:00,76.5,51.0,26.99,ESE,111,5.4,10.1,32,0.00,,---,0.00,VWS V14.01,2013-01-12 21:02:00,
2013-01-12 15:07:00,76.5,51.0,26.99,SE,145,12.3,12.3,32,0.00,,---,0.00,VWS V14.01,2013-01-12 21:07:00,
2013-01-12 15:12:00,76.5,51.0,26.99,SSE,147,5.4,6.3,32,0.00,,---,0.00,VWS V14.01,2013-01-12 21:12:00,
2013-01-12 15:17:00,76.5,51.0,26.99,SE,134,3.1,3.1,32,0.00,,---,0.00,VWS V14.01,2013-01-12 21:17:00,
2013-01-12 15:23:00,76.5,51.0,26.99,SSE,157,3.1,8.3,32,0.00,,---,0.00,VWS V14.01,2013-01-12 21:23:00,
2013-01-12 15:27:00,76.5,51.0,26.99,SE,138,3.6,8.7,32,0.00,,---,0.00,VWS V14.01,2013-01-12 21:27:00,
2013-01-12 15:33:00,76.5,51.0,26.99,SE,138,4.9,4.9,32,0.00,,---,0.00,VWS V14.01,2013-01-12 21:33:00,
2013-01-12 15:37:00,76.5,51.0,26.99,East,83,3.1,3.1,32,0.00,,---,0.00,VWS V14.01,2013-01-12 21:37:00,
2013-01-12 15:42:00,76.5,51.0,26.99,SSE,150,8.3,8.3,32,0.00,,---,0.00,VWS V14.01,2013-01-12 21:42:00,
2013-01-12 15:47:00,76.5,51.0,26.99,ESE,113,5.8,5.8,32,0.00,,---,0.00,VWS V14.01,2013-01-12 21:47:00,
2013-01-12 15:52:00,76.5,51.0,26.99,SE,145,5.8,10.1,32,0.00,,---,0.00,VWS V14.01,2013-01-12 21:52:00,
2013-01-12 15:57:00,76.5,51.0,26.99,ESE,113,8.1,13.2,32,0.00,,---,0.00,VWS V14.01,2013-01-12 21:57:00,
2013-01-12 16:02:00,76.5,51.0,26.99,SE,139,7.6,8.7,32,0.00,,---,0.00,VWS V14.01,2013-01-12 22:02:00,
2013-01-12 16:07:00,76.5,51.0,26.99,East,86,8.1,8.1,32,0.00,,---,0.00,VWS V14.01,2013-01-12 22:07:00,
2013-01-12 16:13:00,76.5,51.0,26.99,SE,140,4.0,4.0,32,0.00,,---,0.00,VWS V14.01,2013-01-12 22:13:00,
2013-01-12 16:17:00,76.5,51.0,26.99,SSE,150,8.3,8.3,32,0.00,,---,0.00,VWS V14.01,2013-01-12 22:17:00,
2013-01-12 16:22:00,76.5,51.0,26.99,SE,130,9.6,9.6,32,0.00,,---,0.00,VWS V14.01,2013-01-12 22:22:00,
2013-01-12 16:27:00,76.5,51.0,26.99,South,176,11.0,11.0,32,0.00,,---,0.00,VWS V14.01,2013-01-12 22:27:00,
2013-01-12 16:33:00,76.5,51.0,26.99,SSE,154,6.3,8.3,32,0.00,,---,0.00,VWS V14.01,2013-01-12 22:33:00,
2013-01-12 16:38:00,76.5,51.0,26.99,SE,142,10.1,10.1,32,0.00,,---,0.00,VWS V14.01,2013-01-12 22:38:00,
2013-01-12 16:43:00,76.5,51.0,26.99,South,177,5.8,8.7,32,0.00,,---,0.00,VWS V14.01,2013-01-12 22:43:00,
2013-01-12 16:48:00,76.5,51.0,26.99,SSE,156,3.6,5.8,32,0.00,,---,0.00,VWS V14.01,2013-01-12 22:48:00,
2013-01-12 16:53:00,76.5,51.0,26.99,ESE,110,2.7,6.3,32,0.00,,---,0.00,VWS V14.01,2013-01-12 22:53:00,
2013-01-12 16:58:00,76.5,51.0,26.99,ESE,110,5.8,8.1,32,0.00,,---,0.00,VWS V14.01,2013-01-12 22:58:00,
2013-01-12 17:03:00,76.5,51.0,26.99,SE,130,3.6,5.4,32,0.00,,---,0.00,VWS V14.01,2013-01-12 23:03:00,
2013-01-12 17:08:00,76.5,51.0,26.99,SSE,150,11.0,11.0,32,0.00,,---,0.00,VWS V14.01,2013-01-12 23:08:00,
2013-01-12 17:13:00,76.5,51.0,27.02,ESE,113,8.1,10.1,32,0.00,,---,0.00,VWS V14.01,2013-01-12 23:13:00,
2013-01-12 17:18:00,76.5,51.0,27.02,SE,139,3.1,3.6,32,0.00,,---,0.00,VWS V14.01,2013-01-12 23:18:00,
2013-01-12 17:23:00,76.5,51.0,27.02,SSE,149,4.9,5.8,32,0.00,,---,0.00,VWS V14.01,2013-01-12 23:23:00,
2013-01-12 17:28:00,76.5,51.0,27.02,SSE,154,5.4,5.4,32,0.00,,---,0.00,VWS V14.01,2013-01-12 23:28:00,
2013-01-12 17:33:00,76.5,51.0,27.02,SW,218,5.8,5.8,32,0.00,,---,0.00,VWS V14.01,2013-01-12 23:33:00,
2013-01-12 17:38:00,76.5,51.0,27.02,East,96,6.3,6.3,32,0.00,,---,0.00,VWS V14.01,2013-01-12 23:38:00,
2013-01-12 17:43:00,76.5,51.0,26.99,SE,139,3.1,4.0,32,0.00,,---,0.00,VWS V14.01,2013-01-12 23:43:00,
2013-01-12 17:48:00,76.5,51.0,26.99,SE,132,3.1,3.1,32,0.00,,---,0.00,VWS V14.01,2013-01-12 23:48:00,
2013-01-12 17:53:00,76.5,51.0,26.99,ESE,118,10.1,10.1,32,0.00,,---,0.00,VWS V14.01,2013-01-12 23:53:00,
2013-01-12 17:58:00,76.5,51.0,26.99,SE,124,5.4,7.6,32,0.00,,---,0.00,VWS V14.01,2013-01-12 23:58:00,
2013-01-12 18:03:00,76.5,51.0,26.99,East,90,4.0,10.1,32,0.00,,---,0.00,VWS V14.01,2013-01-13 00:03:00,
2013-01-12 18:08:00,76.5,51.0,26.99,SSE,151,8.1,11.0,32,0.00,,---,0.00,VWS V14.01,2013-01-13 00:08:00,
2013-01-12 18:12:00,76.5,51.0,27.02,SE,135,11.0,11.0,32,0.00,,---,0.00,VWS V14.01,2013-01-13 00:12:00,
2013-01-12 18:17:00,76.5,51.0,27.02,SSW,211,3.6,5.4,32,0.00,,---,0.00,VWS V14.01,2013-01-13 00:17:00,
2013-01-12 18:22:00,76.5,51.0,27.02,East,99,3.1,6.3,32,0.00,,---,0.00,VWS V14.01,2013-01-13 00:22:00,
2013-01-12 18:28:00,76.5,51.0,27.02,SE,138,2.7,4.0,32,0.00,,---,0.00,VWS V14.01,2013-01-13 00:28:00,
2013-01-12 18:33:00,76.5,51.0,27.02,SE,126,5.8,5.8,32,0.00,,---,0.00,VWS V14.01,2013-01-13 00:33:00,
2013-01-12 18:38:00,76.5,51.0,27.02,SSE,159,5.8,5.8,32,0.00,,---,0.00,VWS V14.01,2013-01-13 00:38:00,
2013-01-12 18:43:00,76.5,51.0,27.02,SSE,161,8.7,8.7,32,0.00,,---,0.00,VWS V14.01,2013-01-13 00:43:00,
2013-01-12 18:48:00,76.5,51.0,27.02,SE,134,4.0,10.5,32,0.00,,---,0.00,VWS V14.01,2013-01-13 00:48:00,
2013-01-12 18:53:00,76.5,51.0,27.02,ESE,102,5.4,5.4,32,0.00,,---,0.00,VWS V14.01,2013-01-13 00:53:00,
2013-01-12 18:58:00,76.5,51.0,27.02,ESE,104,8.3,8.3,32,0.00,,---,0.00,VWS V14.01,2013-01-13 00:58:00,
2013-01-12 19:03:00,76.5,51.0,27.02,SE,143,6.3,8.3,32,0.00,,---,0.00,VWS V14.01,2013-01-13 01:03:00,
2013-01-12 19:08:00,76.5,51.0,27.02,East,101,5.4,6.3,32,0.00,,---,0.00,VWS V14.01,2013-01-13 01:08:00,
2013-01-12 19:13:00,76.5,51.0,27.02,SE,142,5.8,8.3,32,0.00,,---,0.00,VWS V14.01,2013-01-13 01:13:00,
2013-01-12 19:18:00,76.5,51.0,27.02,ESE,114,3.1,6.7,32,0.00,,---,0.00,VWS V14.01,2013-01-13 01:18:00,
2013-01-12 19:23:00,76.5,51.0,27.02,SE,130,4.0,5.8,32,0.00,,---,0.00,VWS V14.01,2013-01-13 01:23:00,
2013-01-12 19:28:00,76.5,51.0,27.02,ESE,110,12.3,12.3,32,0.00,,---,0.00,VWS V14.01,2013-01-13 01:28:00,
2013-01-12 19:33:00,76.5,51.0,27.02,East,98,4.0,5.8,32,0.00,,---,0.00,VWS V14.01,2013-01-13 01:33:00,
2013-01-12 19:38:00,76.5,51.0,27.02,ESE,108,11.0,11.0,32,0.00,,---,0.00,VWS V14.01,2013-01-13 01:38:00,
2013-01-12 19:43:00,76.5,51.0,27.02,East,83,11.4,11.4,32,0.00,,---,0.00,VWS V14.01,2013-01-13 01:43:00,
2013-01-12 19:48:00,76.5,51.0,27.02,SE,129,5.8,6.3,32,0.00,,---,0.00,VWS V14.01,2013-01-13 01:48:00,
2013-01-12 19:53:00,76.5,51.0,27.02,SSE,154,8.1,8.1,32,0.00,,---,0.00,VWS V14.01,2013-01-13 01:53:00,
2013-01-12 19:58:00,76.5,51.0,27.02,ESE,123,7.6,7.6,32,0.00,,---,0.00,VWS V14.01,2013-01-13 01:58:00,
2013-01-12 20:03:00,76.5,51.0,27.02,SE,138,7.6,8.3,32,0.00,,---,0.00,VWS V14.01,2013-01-13 02:03:00,
2013-01-12 20:08:00,76.5,51.0,27.02,ESE,123,5.4,6.3,32,0.00,,---,0.00,VWS V14.01,2013-01-13 02:08:00,
2013-01-12 20:13:00,76.5,51.0,27.02,East,97,5.4,5.8,32,0.00,,---,0.00,VWS V14.01,2013-01-13 02:13:00,
2013-01-12 20:18:00,76.5,51.0,27.02,East,92,8.3,8.3,32,0.00,,---,0.00,VWS V14.01,2013-01-13 02:18:00,
2013-01-12 20:23:00,76.5,51.0,27.02,East,89,6.7,6.7,32,0.00,,---,0.00,VWS V14.01,2013-01-13 02:23:00,
2013-01-12 20:28:00,76.5,51.0,27.02,ESE,123,4.9,5.4,32,0.00,,---,0.00,VWS V14.01,2013-01-13 02:28:00,
2013-01-12 20:33:00,76.5,51.0,27.02,SE,124,5.8,5.8,32,0.00,,---,0.00,VWS V14.01,2013-01-13 02:33:00,
2013-01-12 20:37:00,76.5,51.0,27.02,East,92,4.9,8.7,32,0.00,,---,0.00,VWS V14.01,2013-01-13 02:37:00,
2013-01-12 20:43:00,76.5,51.0,27.02,East,93,8.1,8.1,32,0.00,,---,0.00,VWS V14.01,2013-01-13 02:43:00,
2013-01-12 20:47:00,76.5,51.0,27.02,SSE,150,4.9,9.6,32,0.00,,---,0.00,VWS V14.01,2013-01-13 02:47:00,
2013-01-12 20:53:00,76.5,51.0,27.02,East,94,8.1,8.1,32,0.00,,---,0.00,VWS V14.01,2013-01-13 02:53:00,
2013-01-12 20:58:00,76.5,51.0,27.02,ESE,119,2.7,4.0,32,0.00,,---,0.00,VWS V14.01,2013-01-13 02:58:00,
2013-01-12 21:02:00,76.5,51.0,27.02,ESE,118,6.3,6.3,32,0.00,,---,0.00,VWS V14.01,2013-01-13 03:02:00,
2013-01-12 21:07:00,76.5,51.0,27.02,ESE,115,6.3,6.3,32,0.00,,---,0.00,VWS V14.01,2013-01-13 03:07:00,
2013-01-12 21:12:00,76.5,51.0,27.02,NE,51,10.1,10.1,32,0.00,,---,0.00,VWS V14.01,2013-01-13 03:12:00,
2013-01-12 21:17:00,76.5,51.0,27.02,East,93,8.3,8.3,32,0.00,,---,0.00,VWS V14.01,2013-01-13 03:17:00,
2013-01-12 21:22:00,76.5,51.0,27.02,East,86,4.0,4.0,32,0.00,,---,0.00,VWS V14.01,2013-01-13 03:22:00,
2013-01-12 21:27:00,76.5,51.0,27.02,East,89,3.1,3.1,32,0.00,,---,0.00,VWS V14.01,2013-01-13 03:27:00,
2013-01-12 21:32:00,76.5,51.0,27.02,ENE,71,3.6,7.6,32,0.00,,---,0.00,VWS V14.01,2013-01-13 03:32:00,
2013-01-12 21:37:00,76.5,51.0,27.02,ENE,70,7.6,10.1,32,0.00,,---,0.00,VWS V14.01,2013-01-13 03:37:00,
2013-01-12 21:42:00,76.5,51.0,27.02,ENE,66,4.0,7.6,32,0.00,,---,0.00,VWS V14.01,2013-01-13 03:42:00,
2013-01-12 21:47:00,76.5,51.0,27.02,East,92,3.1,3.6,32,0.00,,---,0.00,VWS V14.01,2013-01-13 03:47:00,
2013-01-12 21:52:00,76.5,51.0,27.02,SE,145,4.9,5.8,32,0.00,,---,0.00,VWS V14.01,2013-01-13 03:52:00,
2013-01-12 21:57:00,76.5,51.0,27.02,ESE,115,4.0,4.0,32,0.00,,---,0.00,VWS V14.01,2013-01-13 03:57:00,
2013-01-12 22:02:00,76.5,51.0,27.02,SE,135,5.4,5.4,32,0.00,,---,0.00,VWS V14.01,2013-01-13 04:02:00,
2013-01-12 22:07:00,76.5,51.0,27.02,ESE,113,3.6,5.8,32,0.00,,---,0.00,VWS V14.01,2013-01-13 04:07:00,
2013-01-12 22:12:00,76.5,51.0,27.05,SE,135,3.6,8.1,32,0.00,,---,0.00,VWS V14.01,2013-01-13 04:12:00,
2013-01-12 22:17:00,76.5,51.0,27.05,ESE,115,8.1,8.1,32,0.00,,---,0.00,VWS V14.01,2013-01-13 04:17:00,
2013-01-12 22:22:00,76.5,51.0,27.05,ESE,121,8.3,8.3,32,0.00,,---,0.00,VWS V14.01,2013-01-13 04:22:00,
2013-01-12 22:27:00,76.5,51.0,27.02,ENE,73,5.4,8.1,32,0.00,,---,0.00,VWS V14.01,2013-01-13 04:27:00,
2013-01-12 22:32:00,76.5,51.0,27.02,South,181,8.3,8.3,32,0.00,,---,0.00,VWS V14.01,2013-01-13 04:32:00,
2013-01-12 22:37:00,76.5,51.0,27.02,SSE,160,5.4,9.6,32,0.00,,---,0.00,VWS V14.01,2013-01-13 04:37:00,
2013-01-12 22:42:00,76.5,51.0,27.02,ENE,69,11.0,11.0,32,0.00,,---,0.00,VWS V14.01,2013-01-13 04:42:00,
2013-01-12 22:47:00,76.5,51.0,27.02,ESE,108,4.0,8.1,32,0.00,,---,0.00,VWS V14.01,2013-01-13 04:47:00,
2013-01-12 22:52:00,76.5,51.0,27.02,SE,130,3.6,4.9,32,0.00,,---,0.00,VWS V14.01,2013-01-13 04:52:00,
2013-01-12 22:57:00,76.5,51.0,27.02,SE,128,4.0,4.0,32,0.00,,---,0.00,VWS V14.01,2013-01-13 04:57:00,
2013-01-12 23:02:00,76.5,51.0,27.02,ENE,75,5.8,10.5,32,0.00,,---,0.00,VWS V14.01,2013-01-13 05:02:00,
2013-01-12 23:03:00,76.5,51.0,27.02,East,85,5.4,6.3,32,0.00,,---,0.00,VWS V14.01,2013-01-13 05:03:00,
2013-01-12 23:08:00,76.5,51.0,27.02,ESE,105,4.0,5.4,32,0.00,,---,0.00,VWS V14.01,2013-01-13 05:08:00,
2013-01-12 23:13:00,76.5,51.0,27.02,East,96,7.6,7.6,32,0.00,,---,0.00,VWS V14.01,2013-01-13 05:13:00,
2013-01-12 23:18:00,76.5,51.0,27.02,NNE,32,2.7,2.7,32,0.00,,---,0.00,VWS V14.01,2013-01-13 05:18:00,
2013-01-12 23:23:00,76.5,51.0,27.02,ESE,108,7.2,7.2,32,0.00,,---,0.00,VWS V14.01,2013-01-13 05:23:00,
2013-01-12 23:28:00,76.5,51.0,27.05,SE,135,4.0,8.3,32,0.00,,---,0.00,VWS V14.01,2013-01-13 05:28:00,
2013-01-12 23:33:00,76.5,51.0,27.05,SE,127,3.6,5.4,32,0.00,,---,0.00,VWS V14.01,2013-01-13 05:33:00,
2013-01-12 23:38:00,76.5,51.0,27.05,ESE,106,5.8,5.8,32,0.00,,---,0.00,VWS V14.01,2013-01-13 05:38:00,
2013-01-12 23:43:00,76.5,51.0,27.05,ESE,119,4.0,4.0,32,0.00,,---,0.00,VWS V14.01,2013-01-13 05:43:00,
2013-01-12 23:48:00,76.5,51.0,27.05,SE,140,5.8,5.8,32,0.00,,---,0.00,VWS V14.01,2013-01-13 05:48:00,
2013-01-12 23:53:00,76.5,51.0,27.02,ESE,113,4.0,4.0,32,0.00,,---,0.00,VWS V14.01,2013-01-13 05:53:00,
2013-01-12 23:58:00,76.5,51.0,27.02,ESE,108,3.6,3.6,32,0.00,,---,0.00,VWS V14.01,2013-01-13 05:58:00,